• In Hungary
  • List of Countries
  • For 7 days
  • Water Temperature
  • Satellite Maps
  • Weather Map
  • News
  • Weather Widgets
  • user-avatar
    Login

    Hourly Weather Belpasso

    Today, 18 January, Thursday

    Time Temperature Precipitation Wind Pressure Humidity
    00:00 +5°C° 0 mm 7 mps 708 mmHg 67%
    01:00 +6°C° 0 mm 5 mps 708 mmHg 70%
    02:00 +5°C° 0 mm 5 mps 709 mmHg 70%
    03:00 +5°C° 0 mm 5 mps 709 mmHg 70%
    04:00 +5°C° 0 mm 5 mps 710 mmHg 70%
    05:00 +5°C° 0 mm 4 mps 711 mmHg 69%
    06:00 +5°C° 0 mm 4 mps 711 mmHg 67%
    07:00 +4°C° 0 mm 4 mps 712 mmHg 66%
    08:00 +7°C° 0 mm 3 mps 712 mmHg 57%
    09:00 +8°C° 0 mm 3 mps 713 mmHg 48%
    10:00 +10°C° 0 mm 3 mps 714 mmHg 39%
    11:00 +10°C° 0 mm 3 mps 714 mmHg 36%
    12:00 +12°C° 0 mm 2 mps 714 mmHg 32%
    13:00 +13°C° 0 mm 2 mps 715 mmHg 29%
    14:00 +13°C° 0 mm 2 mps 715 mmHg 33%
    15:00 +12°C° 0 mm 2 mps 714 mmHg 37%
    16:00 +11°C° 0 mm 3 mps 714 mmHg 41%
    17:00 +9°C° 0 mm 3 mps 714 mmHg 47%
    18:00 +8°C° 0 mm 3 mps 714 mmHg 53%
    19:00 +5°C° 0 mm 3 mps 714 mmHg 59%
    20:00 +6°C° 0 mm 2 mps 714 mmHg 59%
    21:00 +6°C° 0 mm 2 mps 714 mmHg 59%
    22:00 +5°C° 0 mm 2 mps 714 mmHg 59%
    23:00 +5°C° 0 mm 2 mps 713 mmHg 59%

    Tomorrow, 19 January, Friday

    Time Temperature Precipitation Wind Pressure Humidity
    00:00 +5°C° 0 mm 2 mps 713 mmHg 59%
    01:00 +5°C° 0 mm 2 mps 713 mmHg 58%
    02:00 +5°C° 0 mm 2 mps 713 mmHg 60%
    03:00 +5°C° 0 mm 2 mps 712 mmHg 62%
    04:00 +5°C° 0 mm 2 mps 712 mmHg 64%
    05:00 +5°C° 0 mm 2 mps 712 mmHg 65%
    06:00 +5°C° 0 mm 2 mps 712 mmHg 67%
    07:00 +5°C° 0 mm 2 mps 712 mmHg 69%
    08:00 +7°C° 0 mm 2 mps 712 mmHg 64%
    09:00 +9°C° 0 mm 2 mps 712 mmHg 59%
    10:00 +12°C° 0 mm 2 mps 712 mmHg 54%
    11:00 +13°C° 0 mm 2 mps 712 mmHg 52%
    12:00 +14°C° 0 mm 2 mps 712 mmHg 49%
    13:00 +14°C° 0 mm 3 mps 711 mmHg 47%
    14:00 +13°C° 0 mm 3 mps 711 mmHg 51%
    15:00 +12°C° 0 mm 3 mps 711 mmHg 54%
    16:00 +12°C° 0 mm 3 mps 710 mmHg 58%
    17:00 +10°C° 0 mm 3 mps 710 mmHg 65%
    18:00 +9°C° 0 mm 2 mps 710 mmHg 72%
    19:00 +7°C° 0 mm 2 mps 710 mmHg 79%
    20:00 +7°C° 0 mm 2 mps 710 mmHg 79%
    21:00 +6°C° 0 mm 2 mps 710 mmHg 79%
    22:00 +6°C° 0 mm 2 mps 710 mmHg 79%
    23:00 +6°C° 0 mm 2 mps 710 mmHg 79%

    Day after tomorrow, 20 January, Saturday

    Time Temperature Precipitation Wind Pressure Humidity
    00:00 +6°C° 0 mm 2 mps 710 mmHg 79%
    01:00 +6°C° 0 mm 2 mps 709 mmHg 79%
    02:00 +6°C° 0 mm 2 mps 709 mmHg 79%
    03:00 +6°C° 0 mm 2 mps 709 mmHg 79%
    04:00 +6°C° 0 mm 2 mps 708 mmHg 79%
    05:00 +6°C° 0 mm 2 mps 708 mmHg 78%
    06:00 +6°C° 0 mm 2 mps 708 mmHg 78%
    07:00 +6°C° 0 mm 2 mps 708 mmHg 77%
    08:00 +8°C° 0 mm 2 mps 709 mmHg 72%
    09:00 +10°C° 0 mm 1 mps 709 mmHg 66%
    10:00 +12°C° 0 mm 1 mps 709 mmHg 61%
    11:00 +12°C° 0 mm 2 mps 709 mmHg 59%
    12:00 +13°C° 0 mm 2 mps 709 mmHg 57%
    13:00 +14°C° 0 mm 2 mps 708 mmHg 55%
    14:00 +13°C° 0 mm 2 mps 708 mmHg 58%
    15:00 +13°C° 0 mm 2 mps 708 mmHg 61%
    16:00 +12°C° 0 mm 2 mps 708 mmHg 65%
    17:00 +10°C° 0 mm 2 mps 708 mmHg 69%
    18:00 +8°C° 0 mm 2 mps 707 mmHg 73%
    19:00 +7°C° 0 mm 2 mps 707 mmHg 78%
    20:00 +7°C° 0 mm 2 mps 707 mmHg 79%
    21:00 +5°C° 0 mm 3 mps 707 mmHg 80%
    22:00 +5°C° 0 mm 3 mps 707 mmHg 81%
    23:00 +4°C° 0 mm 3 mps 707 mmHg 81%

    21 January, Sunday

    Time Temperature Precipitation Wind Pressure Humidity
    00:00 +4°C° 0 mm 3 mps 707 mmHg 82%
    01:00 +4°C° 0 mm 3 mps 707 mmHg 82%
    02:00 +4°C° 0 mm 3 mps 706 mmHg 82%
    03:00 +4°C° 0 mm 3 mps 706 mmHg 83%
    04:00 +5°C° 0 mm 2 mps 706 mmHg 83%
    05:00 +4°C° 0 mm 3 mps 705 mmHg 82%
    06:00 +4°C° 0 mm 3 mps 705 mmHg 81%
    07:00 +4°C° 0 mm 3 mps 705 mmHg 80%
    08:00 +6°C° 0 mm 4 mps 704 mmHg 78%
    09:00 +7°C° 0 mm 5 mps 704 mmHg 76%
    10:00 +9°C° 0 mm 6 mps 704 mmHg 74%
    11:00 +10°C° 0.1 mm 7 mps 704 mmHg 67%
    12:00 +10°C° 0.1 mm 8 mps 703 mmHg 60%
    13:00 +11°C° 0.1 mm 9 mps 703 mmHg 54%
    14:00 +9°C° 0 mm 10 mps 703 mmHg 54%
    15:00 +8°C° 0 mm 10 mps 704 mmHg 55%
    16:00 +7°C° 0 mm 10 mps 704 mmHg 56%
    17:00 +6°C° 0 mm 10 mps 705 mmHg 56%
    18:00 +5°C° 0 mm 9 mps 705 mmHg 56%
    19:00 +3°C° 0 mm 9 mps 706 mmHg 56%
    20:00 +2°C° 0 mm 8 mps 707 mmHg 56%
    21:00 +2°C° 0 mm 8 mps 707 mmHg 57%
    22:00 +2°C° 0 mm 7 mps 708 mmHg 57%
    23:00 +2°C° 0 mm 7 mps 708 mmHg 58%

    22 January, Monday

    Time Temperature Precipitation Wind Pressure Humidity
    00:00 +2°C° 0 mm 6 mps 708 mmHg 59%
    01:00 +1°C° 0 mm 5 mps 708 mmHg 60%
    02:00 +1°C° 0 mm 5 mps 708 mmHg 61%
    03:00 +1°C° 0 mm 5 mps 709 mmHg 62%
    04:00 +1°C° 0 mm 5 mps 709 mmHg 63%
    05:00 +1°C° 0 mm 5 mps 709 mmHg 65%
    06:00 +1°C° 0 mm 4 mps 709 mmHg 66%
    07:00 +1°C° 0 mm 4 mps 709 mmHg 67%
    08:00 +4°C° 0 mm 4 mps 710 mmHg 63%
    09:00 +5°C° 0 mm 4 mps 711 mmHg 58%
    10:00 +7°C° 0 mm 4 mps 711 mmHg 54%
    11:00 +8°C° 0 mm 4 mps 711 mmHg 51%
    12:00 +11°C° 0 mm 4 mps 711 mmHg 48%
    13:00 +12°C° 0 mm 4 mps 711 mmHg 45%
    14:00 +11°C° 0 mm 4 mps 711 mmHg 47%
    15:00 +11°C° 0 mm 4 mps 711 mmHg 49%
    16:00 +11°C° 0 mm 4 mps 711 mmHg 51%
    17:00 +9°C° 0 mm 3 mps 712 mmHg 56%
    18:00 +7°C° 0 mm 3 mps 712 mmHg 62%
    19:00 +5°C° 0 mm 3 mps 712 mmHg 68%
    20:00 +5°C° 0 mm 2 mps 712 mmHg 69%
    21:00 +5°C° 0 mm 2 mps 713 mmHg 70%
    22:00 +5°C° 0 mm 2 mps 713 mmHg 71%
    23:00 +5°C° 0 mm 2 mps 713 mmHg 71%

    23 January, Tuesday

    Time Temperature Precipitation Wind Pressure Humidity
    00:00 +5°C° 0 mm 2 mps 713 mmHg 71%
    01:00 +5°C° 0 mm 2 mps 713 mmHg 71%
    02:00 +5°C° 0 mm 2 mps 713 mmHg 71%
    03:00 +4°C° 0 mm 2 mps 713 mmHg 70%
    04:00 +4°C° 0 mm 2 mps 713 mmHg 70%
    05:00 +4°C° 0 mm 2 mps 714 mmHg 70%
    06:00 +4°C° 0 mm 2 mps 714 mmHg 69%
    07:00 +4°C° 0 mm 2 mps 714 mmHg 68%
    08:00 +7°C° 0 mm 1 mps 715 mmHg 62%
    09:00 +9°C° 0 mm 1 mps 716 mmHg 55%
    10:00 +12°C° 0 mm 1 mps 716 mmHg 49%
    11:00 +12°C° 0 mm 1 mps 716 mmHg 46%
    12:00 +13°C° 0 mm 2 mps 716 mmHg 44%
    13:00 +14°C° 0 mm 2 mps 717 mmHg 41%
    14:00 +14°C° 0 mm 2 mps 717 mmHg 44%
    15:00 +14°C° 0 mm 2 mps 717 mmHg 47%
    16:00 +13°C° 0 mm 2 mps 717 mmHg 50%
    17:00 +10°C° 0 mm 2 mps 717 mmHg 55%
    18:00 +10°C° 0 mm 1 mps 717 mmHg 61%
    19:00 +8°C° 0 mm 1 mps 717 mmHg 66%
    20:00 +8°C° 0 mm 1 mps 717 mmHg 65%
    21:00 +7°C° 0 mm 1 mps 717 mmHg 63%
    22:00 +7°C° 0 mm 1 mps 717 mmHg 61%
    23:00 +7°C° 0 mm 1 mps 717 mmHg 61%
    Show more